QPF
0.06 0.05 0.05 0.06 0.08 0.08 0.08 0.09 0.10 0.08 0.07 0.06 0.07 0.08 0.09 0.09 0.10 0.08 0.05 0.05 0.05 0.05 0.05 0.04 0.03 0.02 0.02 0.02 0.02 0.02 0.02 0.02 0.03 0.04 0.04 0.04 0.05 0.06
0.05 0.04 0.04 0.05 0.07 0.06 0.07 0.10 0.12 0.11 0.09 0.05 0.06 0.06 0.06 0.08 0.08 0.06 0.05 0.06 0.06 0.05 0.05 0.05 0.04 0.04 0.04 0.03 0.02 0.02 0.02 0.02 0.03 0.05 0.06 0.07 0.08 0.08
0.05 0.05 0.05 0.05 0.06 0.05 0.06 0.08 0.11 0.13 0.13 0.08 0.05 0.06 0.06 0.07 0.09 0.09 0.08 0.07 0.08 0.08 0.06 0.05 0.05 0.06 0.05 0.04 0.03 0.02 0.02 0.02 0.02 0.04 0.05 0.05 0.05 0.04
0.09 0.09 0.07 0.07 0.06 0.06 0.08 0.08 0.09 0.11 0.11 0.07 0.05 0.05 0.04 0.05 0.08 0.09 0.08 0.08 0.07 0.06 0.06 0.06 0.06 0.06 0.05 0.04 0.03 0.02 0.01 0.01 0.02 0.02 0.03 0.03 0.03 0.03
0.07 0.08 0.07 0.07 0.06 0.08 0.09 0.08 0.09 0.10 0.09 0.08 0.05 0.05 0.05 0.05 0.05 0.05 0.06 0.06 0.06 0.06 0.06 0.06 0.05 0.04 0.04 0.03 0.03 0.02 0.02 0.02 0.02 0.03 0.03 0.03 0.03 0.03
0.06 0.06 0.06 0.07 0.07 0.08 0.09 0.08 0.09 0.09 0.07 0.07 0.05 0.04 0.05 0.05 0.05 0.06 0.06 0.07 0.07 0.06 0.06 0.06 0.06 0.05 0.04 0.03 0.03 0.03 0.03 0.03 0.03 0.03 0.03 0.04 0.04 0.04
0.06 0.06 0.06 0.07 0.07 0.08 0.08 0.07 0.09 0.09 0.08 0.07 0.06 0.05 0.05 0.06 0.08 0.09 0.08 0.07 0.06 0.06 0.05 0.04 0.04 0.04 0.03 0.04 0.04 0.04 0.04 0.05 0.05 0.05 0.05 0.05 0.05 0.06
0.08 0.06 0.06 0.06 0.06 0.06 0.05 0.06 0.08 0.08 0.08 0.07 0.07 0.07 0.06 0.08 0.10 0.11 0.10 0.09 0.07 0.06 0.05 0.04 0.03 0.02 0.02 0.02 0.03 0.03 0.03 0.04 0.05 0.05 0.06 0.06 0.06 0.05
0.07 0.05 0.04 0.05 0.06 0.04 0.05 0.07 0.08 0.09 0.10 0.10 0.09 0.10 0.12 0.14 0.14 0.13 0.12 0.11 0.08 0.07 0.06 0.04 0.03 0.02 0.02 0.02 0.02 0.02 0.02 0.02 0.03 0.03 0.03 0.03 0.03 0.02
0.06 0.06 0.06 0.06 0.07 0.06 0.07 0.06 0.07 0.08 0.09 0.08 0.09 0.11 0.12 0.12 0.11 0.11 0.11 0.10 0.09 0.07 0.05 0.03 0.03 0.02 0.02 0.02 0.03 0.03 0.02 0.02 0.02 0.02 0.02 0.02 0.01 0.01
0.04 0.04 0.04 0.03 0.04 0.06 0.05 0.05 0.07 0.07 0.07 0.07 0.08 0.08 0.09 0.08 0.07 0.07 0.07 0.07 0.06 0.05 0.04 0.03 0.03 0.03 0.03 0.03 0.04 0.04 0.03 0.02 0.01 0.01 0.01 0.01 0.00 0.00
0.02 0.02 0.03 0.03 0.03 0.04 0.03 0.03 0.03 0.05 0.06 0.05 0.04 0.04 0.04 0.05 0.05 0.04 0.04 0.05 0.04 0.04 0.03 0.03 0.03 0.04 0.04 0.04 0.03 0.03 0.02 0.02 0.02 0.01 0.01 0.00 0.00 0.00
0.01 0.01 0.02 0.03 0.03 0.03 0.03 0.02 0.02 0.02 0.02 0.02 0.02 0.02 0.02 0.03 0.03 0.03 0.04 0.04 0.03 0.03 0.03 0.03 0.03 0.04 0.03 0.03 0.03 0.02 0.02 0.02 0.01 0.01 0.01 0.01 0.01 0.01
0.01 0.01 0.01 0.02 0.02 0.02 0.01 0.01 0.01 0.01 0.01 0.01 0.01 0.01 0.01 0.02 0.02 0.03 0.03 0.04 0.03 0.03 0.04 0.03 0.03 0.03 0.03 0.03 0.03 0.02 0.02 0.02 0.01 0.01 0.00 0.01 0.00 0.00
0.01 0.01 0.01 0.01 0.01 0.01 0.01 0.01 0.01 0.00 0.00 0.01 0.01 0.01 0.02 0.02 0.03 0.04 0.03 0.03 0.02 0.02 0.03 0.03 0.03 0.03 0.03 0.03 0.03 0.03 0.03 0.02 0.01 0.01 0.00 0.00 0.00 0.00
0.02 0.02 0.02 0.02 0.01 0.01 0.01 0.00 0.00 0.00 0.01 0.01 0.01 0.02 0.02 0.03 0.04 0.04 0.03 0.03 0.02 0.02 0.02 0.01 0.02 0.02 0.03 0.03 0.04 0.04 0.03 0.03 0.02 0.01 0.01 0.00 0.00 0.00
0.02 0.02 0.01 0.01 0.01 0.01 0.01 0.01 0.01 0.01 0.01 0.01 0.01 0.02 0.02 0.03 0.03 0.03 0.03 0.03 0.02 0.02 0.02 0.03 0.04 0.04 0.04 0.04 0.04 0.04 0.04 0.03 0.02 0.02 0.01 0.00 0.00 0.00
0.02 0.01 0.01 0.01 0.01 0.01 0.01 0.01 0.01 0.01 0.02 0.02 0.02 0.02 0.03 0.04 0.04 0.03 0.03 0.03 0.04 0.04 0.05 0.05 0.05 0.05 0.05 0.04 0.03 0.03 0.02 0.02 0.02 0.01 0.01 0.00 0.00 0.00
0.02 0.02 0.02 0.02 0.01 0.02 0.02 0.02 0.02 0.02 0.02 0.02 0.02 0.03 0.03 0.04 0.04 0.05 0.05 0.05 0.04 0.04 0.04 0.04 0.04 0.04 0.04 0.04 0.03 0.02 0.01 0.01 0.01 0.01 0.00 0.00 0.00 0.00
0.02 0.03 0.03 0.03 0.02 0.02 0.02 0.02 0.02 0.03 0.03 0.04 0.04 0.05 0.05 0.04 0.04 0.04 0.04 0.04 0.04 0.04 0.04 0.04 0.03 0.03 0.03 0.03 0.02 0.01 0.01 0.01 0.01 0.01 0.00 0.00 0.00 0.00
0.04 0.04 0.04 0.04 0.04 0.03 0.02 0.02 0.03 0.03 0.04 0.03 0.03 0.03 0.03 0.03 0.03 0.04 0.04 0.05 0.04 0.03 0.03 0.03 0.03 0.03 0.02 0.02 0.02 0.02 0.01 0.01 0.01 0.01 0.01 0.00 0.00 0.00
0.03 0.03 0.03 0.03 0.03 0.03 0.03 0.03 0.03 0.03 0.03 0.03 0.03 0.03 0.03 0.04 0.03 0.03 0.03 0.04 0.03 0.03 0.03 0.03 0.02 0.02 0.02 0.02 0.02 0.01 0.01 0.01 0.01 0.01 0.00 0.00 0.00 0.00
0.01 0.01 0.01 0.02 0.02 0.02 0.02 0.02 0.02 0.02 0.02 0.02 0.02 0.02 0.03 0.03 0.03 0.03 0.04 0.03 0.03 0.03 0.03 0.03 0.03 0.02 0.02 0.02 0.02 0.02 0.01 0.01 0.00 0.00 0.00 0.00 0.00 0.00
MSLP
1018.01 1018.25 1018.53 1018.83 1019.12 1019.39 1019.62 1019.81 1019.95 1020.05 1020.11 1020.14 1020.12 1020.07 1019.97 1019.84 1019.70 1019.55 1019.44 1019.40 1019.46 1019.63 1019.93 1020.34 1020.83 1021.37 1021.92 1022.44 1022.91 1023.30 1023.63 1023.89 1024.13 1024.34 1024.56 1024.78 1025.00 1025.21
1017.56 1017.79 1018.05 1018.33 1018.61 1018.88 1019.12 1019.33 1019.53 1019.71 1019.87 1020.00 1020.10 1020.16 1020.17 1020.13 1020.04 1019.94 1019.85 1019.81 1019.85 1020.00 1020.28 1020.67 1021.15 1021.69 1022.25 1022.79 1023.27 1023.67 1024.01 1024.28 1024.51 1024.72 1024.92 1025.13 1025.34 1025.54
1017.19 1017.40 1017.62 1017.86 1018.09 1018.31 1018.53 1018.75 1018.98 1019.22 1019.48 1019.73 1019.97 1020.17 1020.33 1020.41 1020.44 1020.43 1020.40 1020.39 1020.45 1020.59 1020.85 1021.21 1021.67 1022.18 1022.71 1023.23 1023.69 1024.08 1024.41 1024.67 1024.88 1025.07 1025.26 1025.46 1025.66 1025.87
1016.90 1017.06 1017.23 1017.39 1017.55 1017.71 1017.88 1018.07 1018.30 1018.58 1018.91 1019.27 1019.65 1020.01 1020.32 1020.57 1020.75 1020.86 1020.94 1021.00 1021.10 1021.26 1021.51 1021.85 1022.27 1022.74 1023.22 1023.69 1024.11 1024.47 1024.76 1025.00 1025.20 1025.37 1025.55 1025.75 1025.96 1026.17
1016.68 1016.79 1016.88 1016.96 1017.02 1017.09 1017.17 1017.30 1017.50 1017.79 1018.16 1018.60 1019.08 1019.58 1020.06 1020.47 1020.82 1021.09 1021.29 1021.47 1021.64 1021.85 1022.12 1022.45 1022.83 1023.26 1023.69 1024.11 1024.48 1024.79 1025.05 1025.25 1025.43 1025.60 1025.77 1025.98 1026.20 1026.43
1016.51 1016.56 1016.57 1016.56 1016.52 1016.47 1016.46 1016.50 1016.63 1016.88 1017.24 1017.71 1018.27 1018.87 1019.47 1020.04 1020.54 1020.98 1021.34 1021.64 1021.93 1022.22 1022.53 1022.87 1023.25 1023.65 1024.04 1024.41 1024.73 1025.00 1025.22 1025.40 1025.57 1025.73 1025.92 1026.13 1026.38 1026.64
1016.37 1016.36 1016.31 1016.21 1016.07 1015.92 1015.79 1015.73 1015.76 1015.92 1016.23 1016.68 1017.24 1017.89 1018.58 1019.26 1019.90 1020.48 1020.99 1021.45 1021.86 1022.25 1022.64 1023.04 1023.44 1023.83 1024.21 1024.55 1024.85 1025.09 1025.29 1025.46 1025.62 1025.79 1025.99 1026.23 1026.50 1026.78
1016.24 1016.20 1016.10 1015.93 1015.72 1015.48 1015.24 1015.06 1014.98 1015.03 1015.23 1015.60 1016.12 1016.75 1017.46 1018.20 1018.93 1019.63 1020.28 1020.87 1021.42 1021.93 1022.42 1022.90 1023.35 1023.78 1024.18 1024.52 1024.82 1025.06 1025.26 1025.43 1025.60 1025.79 1026.01 1026.27 1026.56 1026.86
1016.12 1016.07 1015.95 1015.76 1015.50 1015.19 1014.87 1014.58 1014.38 1014.30 1014.38 1014.62 1015.04 1015.59 1016.26 1017.00 1017.77 1018.54 1019.29 1020.00 1020.67 1021.30 1021.91 1022.48 1023.01 1023.50 1023.94 1024.33 1024.65 1024.92 1025.14 1025.34 1025.54 1025.75 1025.99 1026.26 1026.57 1026.88
1016.02 1015.98 1015.88 1015.69 1015.43 1015.09 1014.71 1014.35 1014.03 1013.83 1013.76 1013.86 1014.14 1014.58 1015.16 1015.84 1016.59 1017.38 1018.17 1018.96 1019.73 1020.46 1021.17 1021.84 1022.46 1023.03 1023.55 1023.99 1024.37 1024.69 1024.96 1025.20 1025.44 1025.68 1025.94 1026.22 1026.53 1026.84
1015.94 1015.95 1015.88 1015.74 1015.49 1015.16 1014.77 1014.35 1013.96 1013.65 1013.45 1013.41 1013.53 1013.83 1014.29 1014.87 1015.55 1016.31 1017.10 1017.92 1018.74 1019.54 1020.32 1021.07 1021.78 1022.43 1023.02 1023.54 1023.99 1024.37 1024.71 1025.01 1025.29 1025.56 1025.84 1026.13 1026.43 1026.72
1015.89 1015.94 1015.94 1015.84 1015.65 1015.35 1014.97 1014.55 1014.11 1013.73 1013.43 1013.26 1013.25 1013.41 1013.73 1014.19 1014.78 1015.46 1016.21 1017.00 1017.82 1018.65 1019.47 1020.27 1021.03 1021.74 1022.39 1022.98 1023.50 1023.96 1024.37 1024.73 1025.06 1025.37 1025.67 1025.97 1026.26 1026.52
1015.85 1015.95 1016.00 1015.97 1015.83 1015.59 1015.25 1014.84 1014.40 1013.98 1013.62 1013.37 1013.26 1013.30 1013.49 1013.83 1014.30 1014.88 1015.55 1016.28 1017.06 1017.86 1018.67 1019.48 1020.26 1021.00 1021.70 1022.34 1022.93 1023.45 1023.92 1024.34 1024.72 1025.07 1025.40 1025.70 1025.98 1026.23
1015.82 1015.95 1016.03 1016.05 1015.96 1015.77 1015.48 1015.11 1014.70 1014.28 1013.91 1013.62 1013.44 1013.40 1013.50 1013.74 1014.10 1014.57 1015.14 1015.78 1016.48 1017.22 1017.98 1018.74 1019.51 1020.25 1020.96 1021.63 1022.25 1022.82 1023.34 1023.81 1024.24 1024.63 1024.98 1025.30 1025.57 1025.81
1015.77 1015.90 1015.99 1016.03 1015.97 1015.82 1015.58 1015.26 1014.89 1014.51 1014.16 1013.87 1013.68 1013.60 1013.64 1013.80 1014.07 1014.45 1014.92 1015.46 1016.06 1016.70 1017.38 1018.08 1018.79 1019.50 1020.20 1020.87 1021.50 1022.10 1022.65 1023.16 1023.62 1024.04 1024.42 1024.75 1025.03 1025.26
1015.70 1015.80 1015.87 1015.89 1015.84 1015.70 1015.49 1015.21 1014.89 1014.57 1014.27 1014.02 1013.84 1013.76 1013.79 1013.91 1014.12 1014.43 1014.80 1015.25 1015.75 1016.30 1016.89 1017.50 1018.14 1018.80 1019.45 1020.09 1020.72 1021.31 1021.88 1022.40 1022.88 1023.32 1023.72 1024.06 1024.36 1024.60
1015.62 1015.66 1015.68 1015.65 1015.57 1015.42 1015.21 1014.96 1014.69 1014.42 1014.17 1013.98 1013.86 1013.81 1013.84 1013.96 1014.15 1014.41 1014.72 1015.09 1015.51 1015.97 1016.47 1017.01 1017.58 1018.16 1018.76 1019.37 1019.96 1020.54 1021.09 1021.61 1022.09 1022.53 1022.93 1023.28 1023.59 1023.84
1015.56 1015.52 1015.46 1015.36 1015.22 1015.03 1014.81 1014.56 1014.32 1014.09 1013.90 1013.77 1013.70 1013.70 1013.77 1013.90 1014.09 1014.33 1014.61 1014.94 1015.30 1015.70 1016.14 1016.61 1017.12 1017.65 1018.19 1018.75 1019.30 1019.84 1020.36 1020.85 1021.31 1021.74 1022.12 1022.47 1022.77 1023.03
1015.53 1015.41 1015.26 1015.08 1014.87 1014.63 1014.37 1014.11 1013.87 1013.67 1013.52 1013.43 1013.42 1013.46 1013.57 1013.73 1013.94 1014.18 1014.46 1014.77 1015.11 1015.47 1015.88 1016.31 1016.77 1017.26 1017.76 1018.27 1018.78 1019.28 1019.75 1020.20 1020.62 1021.01 1021.36 1021.68 1021.97 1022.23
1015.56 1015.36 1015.13 1014.88 1014.59 1014.29 1013.99 1013.70 1013.46 1013.26 1013.14 1013.08 1013.09 1013.17 1013.31 1013.50 1013.72 1013.98 1014.27 1014.58 1014.92 1015.28 1015.68 1016.10 1016.54 1017.00 1017.48 1017.95 1018.42 1018.87 1019.29 1019.69 1020.05 1020.39 1020.70 1020.98 1021.24 1021.49
1015.62 1015.37 1015.09 1014.77 1014.43 1014.08 1013.74 1013.43 1013.16 1012.96 1012.84 1012.79 1012.81 1012.91 1013.06 1013.26 1013.50 1013.77 1014.07 1014.40 1014.75 1015.13 1015.53 1015.95 1016.40 1016.85 1017.31 1017.76 1018.19 1018.60 1018.97 1019.31 1019.62 1019.90 1020.15 1020.39 1020.62 1020.85
1015.68 1015.41 1015.10 1014.75 1014.38 1014.00 1013.63 1013.31 1013.03 1012.82 1012.68 1012.63 1012.65 1012.74 1012.89 1013.09 1013.33 1013.60 1013.91 1014.24 1014.61 1015.00 1015.41 1015.85 1016.30 1016.76 1017.21 1017.64 1018.04 1018.40 1018.73 1019.02 1019.27 1019.50 1019.71 1019.91 1020.11 1020.31
1015.69 1015.42 1015.11 1014.77 1014.39 1014.02 1013.65 1013.32 1013.05 1012.83 1012.69 1012.62 1012.63 1012.70 1012.83 1013.01 1013.23 1013.50 1013.80 1014.13 1014.49 1014.89 1015.31 1015.76 1016.21 1016.66 1017.10 1017.51 1017.88 1018.21 1018.50 1018.75 1018.96 1019.15 1019.33 1019.50 1019.68 1019.87
Thickness
5740 5739 5738 5738 5737 5735 5733 5728 5720 5713 5713 5716 5716 5717 5715 5713 5711 5708 5706 5704 5701 5698 5694 5691 5687 5684 5680 5677 5673 5669 5666 5663 5660 5656 5653 5649 5646 5643
5739 5737 5737 5737 5735 5734 5732 5729 5726 5719 5713 5715 5714 5713 5711 5708 5705 5703 5700 5698 5695 5692 5688 5684 5681 5677 5673 5669 5665 5662 5659 5655 5652 5648 5644 5641 5637 5634
5736 5735 5734 5734 5733 5732 5730 5727 5724 5720 5713 5712 5710 5708 5705 5702 5699 5696 5694 5691 5688 5685 5682 5678 5674 5670 5666 5661 5658 5654 5650 5647 5643 5640 5636 5632 5629 5625
5733 5732 5731 5731 5730 5729 5727 5725 5722 5720 5714 5708 5705 5702 5699 5697 5694 5690 5687 5684 5681 5678 5674 5670 5666 5662 5658 5654 5650 5646 5643 5639 5635 5631 5628 5624 5620 5616
5732 5730 5729 5727 5726 5725 5723 5722 5720 5718 5714 5708 5703 5699 5694 5691 5687 5684 5680 5676 5673 5669 5665 5662 5658 5654 5650 5646 5642 5638 5635 5631 5627 5623 5619 5615 5611 5607
5730 5728 5726 5725 5723 5722 5720 5719 5716 5713 5709 5705 5700 5694 5689 5685 5682 5676 5671 5667 5665 5661 5657 5653 5649 5645 5641 5637 5634 5631 5627 5622 5618 5614 5610 5606 5602 5597
5725 5724 5723 5722 5721 5720 5718 5715 5712 5708 5704 5700 5695 5689 5684 5679 5675 5671 5665 5660 5656 5653 5649 5645 5641 5637 5633 5629 5626 5622 5618 5613 5609 5605 5601 5596 5592 5587
5719 5718 5717 5717 5716 5715 5714 5712 5710 5706 5701 5696 5691 5686 5682 5678 5672 5667 5660 5654 5648 5646 5642 5637 5633 5629 5626 5621 5617 5613 5609 5604 5600 5595 5591 5586 5582 5577
5713 5712 5711 5711 5709 5708 5707 5706 5704 5702 5700 5695 5690 5685 5680 5676 5670 5662 5657 5652 5647 5642 5635 5629 5625 5621 5618 5614 5609 5604 5600 5595 5591 5586 5581 5576 5571 5567
5707 5705 5704 5702 5702 5700 5699 5697 5695 5694 5692 5690 5687 5683 5678 5673 5667 5662 5654 5645 5639 5634 5630 5623 5618 5613 5609 5605 5601 5596 5591 5587 5582 5577 5572 5567 5562 5557
5699 5698 5696 5694 5694 5692 5690 5688 5686 5684 5682 5681 5678 5675 5670 5665 5660 5652 5645 5638 5632 5626 5622 5617 5611 5605 5600 5596 5593 5588 5583 5578 5573 5568 5562 5558 5553 5549
5691 5689 5687 5686 5685 5683 5681 5679 5676 5674 5672 5669 5666 5663 5660 5655 5651 5647 5642 5634 5626 5620 5615 5610 5603 5597 5591 5587 5584 5579 5574 5569 5564 5559 5554 5550 5546 5541
5683 5680 5678 5677 5675 5673 5671 5669 5667 5664 5661 5658 5655 5651 5647 5644 5640 5637 5633 5628 5621 5616 5611 5604 5597 5591 5585 5579 5575 5571 5566 5561 5556 5552 5547 5543 5539 5534
5675 5672 5670 5668 5666 5664 5662 5660 5657 5654 5650 5647 5643 5640 5636 5633 5630 5626 5622 5618 5614 5610 5605 5599 5593 5586 5578 5571 5566 5562 5558 5554 5549 5545 5541 5537 5532 5528
5668 5664 5661 5658 5656 5654 5652 5649 5646 5643 5640 5636 5633 5630 5627 5624 5619 5615 5610 5606 5603 5599 5595 5591 5587 5580 5574 5567 5560 5555 5550 5547 5542 5538 5534 5530 5526 5522
5658 5655 5651 5649 5646 5644 5641 5638 5635 5633 5630 5626 5623 5620 5616 5612 5608 5604 5600 5595 5591 5587 5584 5581 5577 5572 5566 5560 5554 5548 5545 5540 5537 5532 5527 5523 5520 5517
5648 5644 5640 5637 5635 5632 5630 5628 5625 5622 5619 5616 5613 5609 5605 5602 5598 5594 5590 5585 5581 5577 5573 5570 5566 5562 5558 5553 5547 5542 5538 5534 5530 5526 5520 5516 5514 5511
5638 5634 5631 5628 5625 5623 5620 5617 5615 5612 5610 5606 5603 5599 5596 5592 5588 5583 5579 5575 5571 5567 5563 5559 5555 5551 5546 5542 5541 5536 5531 5527 5523 5519 5514 5509 5506 5506
5628 5625 5621 5618 5615 5612 5609 5607 5604 5602 5600 5597 5593 5589 5586 5582 5578 5574 5569 5565 5561 5558 5554 5550 5546 5541 5536 5533 5531 5530 5525 5520 5516 5511 5507 5503 5501 5501
5617 5614 5611 5608 5604 5601 5599 5596 5594 5591 5589 5586 5583 5580 5576 5573 5569 5565 5561 5557 5553 5549 5545 5541 5538 5535 5531 5526 5523 5521 5520 5515 5510 5505 5502 5499 5496 5495
5606 5603 5600 5597 5594 5592 5589 5587 5584 5581 5578 5576 5573 5570 5567 5564 5561 5557 5554 5550 5545 5541 5537 5533 5531 5529 5524 5518 5514 5512 5511 5510 5506 5501 5496 5491 5488 5486
5596 5593 5591 5588 5585 5583 5580 5577 5574 5572 5569 5566 5564 5561 5559 5556 5552 5549 5545 5541 5537 5533 5529 5525 5522 5518 5514 5510 5506 5504 5502 5501 5499 5497 5493 5490 5484 5480
5586 5584 5581 5578 5576 5573 5571 5568 5565 5563 5560 5557 5555 5552 5550 5547 5543 5540 5536 5532 5528 5524 5520 5515 5512 5509 5505 5502 5499 5496 5495 5492 5490 5488 5487 5487 5484 5482